FREGAT DEB, 46095

Orbit data source: Space-Track

FREGAT DEB, 46095 is space debris in LEO originally from a launch on Mon, 18 Jul 2011 UTC launched from the Tyuratam Missile And Space Complex (TTMTR). Debris objects in space refer to the collection of defunct objects orbiting the Earth. Examples of debris include non-operational satellites, rocket bodies, and fragments generated from explosions, collisions, or faulty payload assembly.

Loading next visibility...
Identifier
46095, 2011-037JE
Orbit
LEO
Country
Flag of CISCIS
Related business
Manufacturer
Lavochkin
Mission
Spacecraft
Bus & Motor
Unknown
Mass
Unknown
Launch date (UTC)
2011-07-18 (15 years ago)
Launch vehicle
Unknown
Launch site
Tyuratam Missile And Space Complex (TTMTR)
Object type
Payload
Rocket body
Debris
Shape & HBR
Unknown shape, 0.1 m
Radar Cross Section
Medium (>0.1 m² and <1 m²)

Expand to show TLE details & history
Last TLE update: 1 day ago

TLE from 1 day ago
0 FREGAT DEB
1 46095U 11037JE  26033.90134444  .00024893  00000-0  29721+0 0  9995
2 46095  51.0672 228.7203 1729347  90.5480 289.2679 10.03819452197654
Epoch: 2026-02-02T21:37Z
TLE epoch observation values (Epoch: 2026-02-02T21:37:56.159Z)
Latitude
-0.00004°
Longitude
131.14629°
Altitude
2,440.898 km
Speed
6.82 km/s
True Right ascension
15h 14m 52s
True Declination
0° 00' 00"
Sunlit
Object was in daylight at epoch
Visualization orbit readout
Latitude
Unknown
Longitude
Unknown
Altitude
Unknown
Speed
Unknown
Apparent Right ascension
Unknown
Apparent Declination
Unknown
Sunlit
N/A
Visualization observer readout
Local Sidereal Time
23:47:22
Azimuth
Unknown
Elevation
Unknown
Doppler factor
Unknown
Orbital elements
Apogee altitude
4,269.698 km
Perigee altitude
1,129.915 km
Semi-major axis
9,077.943 km
Eccentricity
0.17293
Inclination
51.0672°
RAAN
228.7203°
Arg. of periapsis
90.548°
True anomaly
269.52998°
Mean anomaly
289.2679°
Eccentric anomaly
279.49522°
Mean motion
2.50935 °/min
Orbital period
143.46 mins
BSTAR
0.29721
Loading maneuver chart data...
Computing Atmospheric mass density...
Loading historical data...
Loading historical data...
Loading historical data...
Loading historical data...
Loading historical data...
Loading historical data...
Loading historical data...

Documentation

Showing up to 5 results
|